Time,TemperatureF,DewpointF,PressureIn,WindDirection,WindDirectionDegrees,WindSpeedMPH,WindSpeedGustMPH,Humidity,HourlyPrecipIn,Conditions,Clouds,dailyrainin,SoftwareType,DateUTC
2013-06-20 00:01:00,82.0,33.0,-100.00,NW,310,5.0,13.0,17,0.00,,,0.00,,2013-06-20 00:01:00,
2013-06-20 00:11:00,82.0,33.0,-100.00,NW,310,5.0,13.0,17,0.00,,,0.00,,2013-06-20 00:11:00,
2013-06-20 00:22:00,82.0,33.0,-100.00,NW,310,5.0,13.0,17,0.00,,,0.00,,2013-06-20 00:22:00,
2013-06-20 00:52:00,81.0,39.0,-100.00,NNE,29,4.0,11.0,22,0.00,,,0.00,,2013-06-20 00:52:00,
2013-06-20 01:02:00,81.0,39.0,-100.00,NNE,29,4.0,11.0,22,0.00,,,0.00,,2013-06-20 01:02:00,
2013-06-20 01:11:00,81.0,39.0,-100.00,NNE,29,4.0,11.0,22,0.00,,,0.00,,2013-06-20 01:11:00,
2013-06-20 01:22:00,81.0,39.0,-100.00,NNE,29,4.0,11.0,22,0.00,,,0.00,,2013-06-20 01:22:00,
2013-06-20 01:52:00,75.0,41.0,-100.00,NW,309,4.0,14.0,30,0.00,,,0.00,,2013-06-20 01:52:00,
2013-06-20 02:02:00,75.0,41.0,-100.00,NW,309,4.0,14.0,30,0.00,,,0.00,,2013-06-20 02:02:00,
2013-06-20 02:11:00,75.0,41.0,-100.00,NW,309,4.0,14.0,30,0.00,,,0.00,,2013-06-20 02:11:00,
2013-06-20 02:24:00,75.0,41.0,-100.00,NW,309,4.0,14.0,30,0.00,,,0.00,,2013-06-20 02:24:00,
2013-06-20 02:52:00,68.0,46.0,-100.00,North,351,3.0,13.0,45,0.00,,,0.00,,2013-06-20 02:52:00,
2013-06-20 03:02:00,68.0,46.0,-100.00,North,351,3.0,13.0,45,0.00,,,0.00,,2013-06-20 03:02:00,
2013-06-20 03:11:00,68.0,46.0,-100.00,North,351,3.0,13.0,45,0.00,,,0.00,,2013-06-20 03:11:00,
2013-06-20 03:22:00,68.0,46.0,-100.00,North,351,3.0,13.0,45,0.00,,,0.00,,2013-06-20 03:22:00,
2013-06-20 03:54:00,63.0,48.0,-100.00,NNW,340,0.0,8.0,57,0.00,,,0.00,,2013-06-20 03:54:00,
2013-06-20 04:01:00,63.0,48.0,-100.00,NNW,340,0.0,8.0,57,0.00,,,0.00,,2013-06-20 04:01:00,
2013-06-20 04:11:00,63.0,48.0,-100.00,NNW,340,0.0,8.0,57,0.00,,,0.00,,2013-06-20 04:11:00,
2013-06-20 04:22:00,63.0,48.0,-100.00,NNW,340,0.0,8.0,57,0.00,,,0.00,,2013-06-20 04:22:00,
2013-06-20 04:54:00,59.0,48.0,-100.00,NNW,329,0.0,5.0,66,0.00,,,0.00,,2013-06-20 04:54:00,
2013-06-20 05:01:00,59.0,48.0,-100.00,NNW,329,0.0,5.0,66,0.00,,,0.00,,2013-06-20 05:01:00,
2013-06-20 05:12:00,59.0,48.0,-100.00,NNW,329,0.0,5.0,66,0.00,,,0.00,,2013-06-20 05:12:00,
2013-06-20 05:22:00,59.0,48.0,-100.00,NNW,329,0.0,5.0,66,0.00,,,0.00,,2013-06-20 05:22:00,
2013-06-20 05:53:00,53.0,45.0,-100.00,North,358,0.0,0.0,73,0.00,,,0.00,,2013-06-20 05:53:00,
2013-06-20 06:22:00,53.0,45.0,-100.00,North,358,0.0,0.0,73,0.00,,,0.00,,2013-06-20 06:22:00,
2013-06-20 06:53:00,49.0,42.0,-100.00,WSW,247,0.0,0.0,78,0.00,,,0.00,,2013-06-20 06:53:00,
2013-06-20 14:53:00,59.0,27.0,-100.00,WSW,254,0.0,0.0,29,-99.99,,,-99.99,,2013-06-20 14:53:00,
2013-06-20 15:01:00,59.0,27.0,-100.00,WSW,254,0.0,0.0,29,-99.99,,,-99.99,,2013-06-20 15:01:00,
2013-06-20 15:11:00,59.0,27.0,-100.00,WSW,254,0.0,0.0,29,-99.99,,,-99.99,,2013-06-20 15:11:00,
2013-06-20 15:22:00,59.0,27.0,-100.00,WSW,254,0.0,0.0,29,-99.99,,,-99.99,,2013-06-20 15:22:00,
2013-06-20 15:53:00,74.0,18.0,-100.00,SSW,206,0.0,0.0,12,0.00,,,0.00,,2013-06-20 15:53:00,
2013-06-20 16:01:00,74.0,18.0,-100.00,SSW,206,0.0,0.0,12,0.00,,,0.00,,2013-06-20 16:01:00,
2013-06-20 16:11:00,74.0,18.0,-100.00,SSW,206,0.0,0.0,12,0.00,,,0.00,,2013-06-20 16:11:00,
2013-06-20 16:22:00,74.0,18.0,-100.00,SSW,206,0.0,0.0,12,0.00,,,0.00,,2013-06-20 16:22:00,
2013-06-20 19:22:00,85.0,11.0,-100.00,ENE,76,3.0,12.0,6,0.00,,,0.00,,2013-06-20 19:22:00,
2013-06-20 20:22:00,88.0,19.0,-100.00,West,271,3.0,10.0,8,0.00,,,0.00,,2013-06-20 20:22:00,
2013-06-20 20:52:00,87.0,19.0,-100.00,NE,36,4.0,10.0,8,0.00,,,0.00,,2013-06-20 20:52:00,
2013-06-20 22:12:00,86.0,23.0,-100.00,SSW,202,6.0,11.0,10,0.00,,,0.00,,2013-06-20 22:12:00,